This is the latest recevied weather packets stored in our database for station/object KC1BRV. If no packets are shown the sender has not sent any weather packets the latest 10 day(s).
| Time | Temp. | Humidity | Pressure | Rain* | Wind** | Luminosity | Snow |
|---|---|---|---|---|---|---|---|
| 1777459646 | 6.67° C | 88% | 1018.5 hPa | 0 mm | - | 28 W/m² | - |
| 1777459041 | 6.67° C | 88% | 1018.5 hPa | 0 mm | - | 22 W/m² | - |
| 1777458738 | 6.67° C | 88% | 1018.4 hPa | 0 mm | - | 19 W/m² | - |
| 1777458434 | 6.67° C | 88% | 1018.1 hPa | 0 mm | - | 16 W/m² | - |
| 1777458130 | 6.67° C | 88% | 1018.1 hPa | 0 mm | - | 15 W/m² | - |
| 1777457827 | 6.67° C | 88% | 1018 hPa | 0 mm | - | 13 W/m² | - |
| 1777457526 | 6.67° C | 89% | 1018 hPa | 0 mm | - | 10 W/m² | - |
| 1777457223 | 6.67° C | 89% | 1018.5 hPa | 0 mm | - | 8 W/m² | - |
| 1777456918 | 6.67° C | 89% | 1018.4 hPa | 0 mm | - | 6 W/m² | - |
| 1777456613 | 6.11° C | 89% | 1018.3 hPa | 0 mm | - | 4 W/m² | - |
| 1777455398 | 6.11° C | 89% | 1017.9 hPa | 0 mm | - | 0 W/m² | - |
| 1777455095 | 6.11° C | 89% | 1017.8 hPa | 0 mm | - | 0 W/m² | - |
| 1777454792 | 6.11° C | 89% | 1017.8 hPa | 0 mm | - | 0 W/m² | - |
| 1777454487 | 6.67° C | 88% | 1017.8 hPa | 0 mm | - | 0 W/m² | - |
| 1777454184 | 6.67° C | 88% | 1017.7 hPa | 0 mm | - | 0 W/m² | - |
| 1777453881 | 6.67° C | 88% | 1017.7 hPa | 0 mm | - | 0 W/m² | - |
| 1777453578 | 6.67° C | 88% | 1017.6 hPa | 0 mm | - | 0 W/m² | - |
| 1777453274 | 6.67° C | 88% | 1017.6 hPa | 0 mm | - | 0 W/m² | - |
| 1777452972 | 6.67° C | 88% | 1017.6 hPa | 0 mm | - | 0 W/m² | - |
| 1777452365 | 6.67° C | 88% | 1017.6 hPa | 0 mm | - | 0 W/m² | - |
| 1777452061 | 6.67° C | 88% | 1017.7 hPa | 0 mm | - | 0 W/m² | - |
| 1777451756 | 6.67° C | 88% | 1017.7 hPa | 0 mm | - | 0 W/m² | - |
| 1777451452 | 6.67° C | 88% | 1017.8 hPa | 0 mm | - | 0 W/m² | - |
| 1777451148 | 6.67° C | 88% | 1017.7 hPa | 0 mm | - | 0 W/m² | - |
| 1777450844 | 6.67° C | 88% | 1017.9 hPa | 0 mm | - | 0 W/m² | - |
* Rain latest hour (hover to see other rain measurements)
** Current wind speed in m/s (hover to see current wind gust speed)